Date String (YYYY-MM-DD hh:mm:ss) UTC,Instrument flags,absolute air pressure of the measurement (hPa),sample flow rate (lpm),inlet stack bypass flow (lpm),air temperature of the measurement (°C),ambient temperature measured by the external sensor (°C),aerosol sample conditioner tube jacket temperature (°C),OPC LED temperature (°C),internal box temperature (°C),relative humidity of the measurement (%),span deviation,mass concentration of particles derived from Lorenz-Mie calculation of OPC scattering (μg/m³),mass concentration of particles derived from Lorenz-Mie calculation of OPC scattering (μg/m³),mass concentration of particles derived from Lorenz-Mie calculation of OPC scattering (μg/m³)
DateTimeUTC,F1_M11,P_M11,Q1_M11,Q2_M11,T1_M11,T2_M11,T3_M11,T4_M11,T5_M11,U1_M11,ZSPAN_M11,X2_M11,X0_M11,X1_M11
2023-11-17 10:00:00,SystemResetWarning,0829.3,5.00,000.00,027.1,025.9,000.0,035.5,028.5,20.1,0000.0,0006.80,0011.52,0006.08
2023-11-17 10:01:00,SystemResetWarning,0829.4,5.00,000.00,027.0,025.9,000.0,035.5,028.4,20.1,0000.0,0006.84,0011.54,0006.12
2023-11-17 10:02:00,SystemResetWarning,0829.4,5.00,000.00,027.0,025.8,000.0,035.5,028.4,20.1,0000.0,0006.82,0011.36,0006.15
2023-11-17 10:03:00,SystemResetWarning,0829.4,4.99,000.00,027.0,025.8,000.0,035.5,028.4,20.0,0000.0,0006.87,0011.46,0006.19
2023-11-17 10:04:00,SystemResetWarning,0829.3,5.00,000.00,027.0,025.8,000.0,035.5,028.2,19.8,0000.0,0006.95,0011.63,0006.26
2023-11-17 10:05:00,SystemResetWarning,0829.4,5.00,000.00,026.9,025.8,000.0,035.5,028.2,19.8,0000.0,0006.98,0011.34,0006.30
2023-11-17 10:06:00,SystemResetWarning,0829.3,5.00,000.00,026.9,025.7,000.0,035.5,028.2,19.8,0000.0,0007.03,0011.29,0006.35
2023-11-17 10:07:00,SystemResetWarning,0829.4,5.00,000.00,026.9,025.7,000.0,035.4,028.1,19.8,0000.0,0007.07,0011.32,0006.36
2023-11-17 10:08:00,SystemResetWarning,0829.4,5.00,000.00,026.8,025.7,000.0,035.4,028.1,19.9,0000.0,0007.05,0010.93,0006.36
2023-11-17 10:09:00,SystemResetWarning,0829.3,5.00,000.00,026.8,025.6,000.0,035.4,028.1,19.9,0000.0,0007.03,0011.07,0006.33
2023-11-17 10:10:00,SystemResetWarning,0829.3,5.00,000.00,026.8,025.6,000.0,035.4,028.0,20.0,0000.0,0006.98,0011.11,0006.27
2023-11-17 10:11:00,SystemResetWarning,0829.4,4.99,000.00,026.8,025.6,000.0,035.4,027.9,19.9,0000.0,0006.96,0011.15,0006.21
2023-11-17 10:12:00,SystemResetWarning,0829.4,4.99,000.00,026.7,025.6,000.0,035.3,027.9,20.0,0000.0,0006.90,0011.54,0006.15
2023-11-17 10:13:00,SystemResetWarning,0829.4,5.00,000.00,026.7,025.6,000.0,035.3,028.0,20.0,0000.0,0006.86,0011.68,0006.09
2023-11-17 10:14:00,SystemResetWarning,0829.4,5.00,000.00,026.7,025.6,000.0,035.3,028.0,19.9,0000.0,0006.80,0011.58,0006.03
2023-11-17 10:15:00,SystemResetWarning,0829.3,5.00,000.00,026.7,025.6,000.0,035.3,028.0,20.0,0000.0,0006.69,0011.41,0005.95
2023-11-17 10:16:00,SystemResetWarning,0829.4,5.00,000.00,026.6,025.6,000.0,035.3,028.0,20.0,0000.0,0006.66,0011.41,0005.90
2023-11-17 10:17:00,SystemResetWarning,0829.3,5.00,000.00,026.6,025.6,000.0,035.2,028.0,19.9,0000.0,0006.59,0011.87,0005.86
2023-11-17 10:18:00,SystemResetWarning,0829.3,4.99,000.00,026.6,025.6,000.0,035.2,028.0,20.0,0000.0,0006.55,0012.06,0005.81
2023-11-17 10:19:00,SystemResetWarning,0829.3,4.99,000.00,026.6,025.6,000.0,035.2,028.0,19.9,0000.0,0006.54,0012.06,0005.79
2023-11-17 10:20:00,SystemResetWarning,0829.3,5.00,000.00,026.6,025.6,000.0,035.2,028.0,19.9,0000.0,0006.51,0012.28,0005.77
2023-11-17 10:21:00,SystemResetWarning,0829.3,5.01,000.00,026.6,025.6,000.0,035.2,028.1,19.8,0000.0,0006.53,0012.22,0005.78
2023-11-17 10:22:00,SystemResetWarning,0829.3,5.01,000.00,026.6,025.6,000.0,035.1,028.1,19.8,0000.0,0006.53,0012.09,0005.80
2023-11-17 10:23:00,SystemResetWarning,0829.2,5.00,000.00,026.6,025.6,000.0,035.1,028.0,19.8,0000.0,0006.52,0011.63,0005.79
2023-11-17 10:24:00,SystemResetWarning,0829.1,5.00,000.00,026.6,025.6,000.0,035.1,028.1,19.7,0000.0,0006.48,0011.31,0005.78
2023-11-17 10:25:00,SystemResetWarning,0829.2,4.99,000.00,026.6,025.6,000.0,035.1,028.1,19.7,0000.0,0006.50,0011.37,0005.78
2023-11-17 10:26:00,SystemResetWarning,0829.1,4.99,000.00,026.6,025.6,000.0,035.1,028.1,19.7,0000.0,0006.48,0011.38,0005.78
2023-11-17 10:27:00,SystemResetWarning,0829.1,5.00,000.00,026.6,025.6,000.0,035.1,028.1,19.6,0000.0,0006.48,0011.50,0005.79
2023-11-17 10:28:00,SystemResetWarning,0829.1,5.00,000.00,026.6,025.6,000.0,035.1,028.0,19.6,0000.0,0006.49,0011.13,0005.78
2023-11-17 10:29:00,SystemResetWarning,0829.1,5.00,000.00,026.6,025.6,000.0,035.1,027.9,19.6,0000.0,0006.47,0010.69,0005.78
2023-11-17 10:30:00,SystemResetWarning,0829.1,5.01,000.00,026.6,025.6,000.0,035.1,027.8,19.7,0000.0,0006.43,0010.60,0005.77
2023-11-17 10:31:00,SystemResetWarning,0829.1,5.00,000.00,026.6,025.6,000.0,035.1,027.8,19.8,0000.0,0006.44,0010.26,0005.76
2023-11-17 10:32:00,SystemResetWarning,0829.1,5.00,000.00,026.5,025.6,000.0,035.1,027.8,19.8,0000.0,0006.39,0010.50,0005.75
2023-11-17 10:33:00,SystemResetWarning,0829.1,5.00,000.00,026.5,025.5,000.0,035.0,027.7,19.8,0000.0,0006.34,0011.26,0005.72
2023-11-17 10:34:00,SystemResetWarning,0829.1,5.00,000.00,026.5,025.5,000.0,035.0,027.8,19.8,0000.0,0006.34,0011.78,0005.72
2023-11-17 10:35:00,SystemResetWarning,0829.1,4.99,000.00,026.5,025.5,000.0,035.0,027.9,19.9,0000.0,0006.36,0012.21,0005.72
2023-11-17 10:36:00,SystemResetWarning,0829.2,4.99,000.00,026.5,025.5,000.0,035.0,027.9,19.9,0000.0,0006.40,0012.89,0005.71
2023-11-17 10:37:00,SystemResetWarning,0829.2,5.00,000.00,026.5,025.4,000.0,035.0,027.9,19.9,0000.0,0006.43,0012.80,0005.71
2023-11-17 10:38:00,SystemResetWarning,0829.2,4.99,000.00,026.4,025.4,000.0,035.0,027.9,19.9,0000.0,0006.45,0012.74,0005.71
2023-11-17 10:39:00,SystemResetWarning,0829.4,5.00,000.00,026.4,025.4,000.0,035.0,027.9,19.9,0000.0,0006.45,0012.78,0005.72
2023-11-17 10:40:00,SystemResetWarning,0829.4,5.00,000.00,026.4,025.4,000.0,034.9,027.9,19.8,0000.0,0006.43,0012.81,0005.72
2023-11-17 10:41:00,SystemResetWarning,0829.3,5.00,000.00,026.4,025.4,000.0,034.9,027.9,19.5,0000.0,0006.46,0012.86,0005.73
2023-11-17 10:42:00,SystemResetWarning,0829.3,5.00,000.00,026.4,025.4,000.0,034.9,027.9,19.4,0000.0,0006.46,0012.84,0005.74
2023-11-17 10:43:00,SystemResetWarning,0829.3,5.00,000.00,026.5,025.4,000.0,034.9,027.9,19.4,0000.0,0006.53,0012.63,0005.75
2023-11-17 10:44:00,SystemResetWarning,0829.3,5.01,000.00,026.5,025.4,000.0,034.9,027.9,19.5,0000.0,0006.62,0012.56,0005.79
2023-11-17 10:45:00,SystemResetWarning,0829.3,5.00,000.00,026.5,025.4,000.0,034.9,028.0,19.5,0000.0,0006.68,0012.17,0005.82
2023-11-17 10:46:00,SystemResetWarning,0829.5,5.00,000.00,026.5,025.4,000.0,034.9,028.0,19.6,0000.0,0006.69,0011.82,0005.84
2023-11-17 10:47:00,SystemResetWarning,0829.5,4.99,000.00,026.5,025.4,000.0,034.9,028.0,19.4,0000.0,0006.67,0011.10,0005.85
2023-11-17 10:48:00,SystemResetWarning,0829.5,5.00,000.00,026.5,025.5,000.0,034.9,028.0,19.4,0000.0,0006.65,0011.02,0005.86
2023-11-17 10:49:00,SystemResetWarning,0829.4,4.99,000.00,026.5,025.5,000.0,034.9,028.0,19.4,0000.0,0006.67,0011.07,0005.88
2023-11-17 10:50:00,SystemResetWarning,0829.4,4.99,000.00,026.5,025.5,000.0,034.9,028.0,19.5,0000.0,0006.71,0011.03,0005.90
2023-11-17 10:51:00,SystemResetWarning,0829.3,5.01,000.00,026.5,025.5,000.0,034.9,028.0,19.8,0000.0,0006.73,0010.83,0005.92
2023-11-17 10:52:00,SystemResetWarning,0829.4,5.01,000.00,026.5,025.5,000.0,034.9,028.0,19.9,0000.0,0006.75,0010.98,0005.93
2023-11-17 10:53:00,SystemResetWarning,0829.4,5.01,000.00,026.5,025.5,000.0,034.9,028.0,20.0,0000.0,0006.79,0012.64,0005.95
2023-11-17 10:54:00,SystemResetWarning,0829.4,5.00,000.00,026.5,025.5,000.0,034.9,028.0,20.1,0000.0,0006.76,0013.27,0005.97
2023-11-17 10:55:00,SystemResetWarning,0829.5,4.99,000.00,026.5,025.5,000.0,034.9,027.9,20.1,0000.0,0006.73,0012.78,0005.99
2023-11-17 10:56:00,SystemResetWarning,0829.4,4.99,000.00,026.5,025.5,000.0,034.9,027.9,20.1,0000.0,0006.70,0013.02,0006.01
2023-11-17 10:57:00,SystemResetWarning,0829.3,5.00,000.00,026.5,025.5,000.0,034.9,028.0,20.2,0000.0,0006.73,0013.04,0006.05
2023-11-17 10:58:00,SystemResetWarning,0829.3,5.01,000.00,026.5,025.5,000.0,034.9,027.9,20.2,0000.0,0006.77,0013.60,0006.11
2023-11-17 10:59:00,SystemResetWarning,0829.3,5.00,000.00,026.5,025.5,000.0,034.9,028.0,20.2,0000.0,0006.81,0013.64,0006.15
